Location: Unspecified
(0.0000°N, 0.0000°E)
Time: 01:44:59
(UTC+00:00)

Tansei-3 - Visible Passes

Search period start: 27 February 2021 00:00
Search period end: 09 March 2021 00:00
Orbit: 807 x 3793 km, 65.8° (Epoch: 26 February)

Date Brightness Start Highest point End Pass type
(mag) Time Alt. Az. Time Alt. Az. Time Alt. Az.
28 Feb 12.3 00:15:31 10° S 00:17:35 14° S 00:17:35 14° S visible
01 Mar 12.4 00:51:23 10° SSW 00:52:31 12° SSW 00:52:31 12° SSW visible
01 Mar 12.5 23:13:20 10° SSE 23:13:27 10° SSE 23:13:27 10° SSE visible
02 Mar 12.4 23:47:10 10° S 23:48:32 13° S 23:48:32 13° S visible
04 Mar 12.4 00:23:03 10° SSW 00:23:41 11° SSW 00:23:41 11° SSW visible
05 Mar 12.4 23:18:48 10° S 23:20:00 12° S 23:20:00 12° S visible
06 Mar 12.4 23:54:43 10° SSW 23:55:18 11° SSW 23:55:18 11° SSW visible
08 Mar 12.3 22:50:27 10° S 22:51:53 13° S 22:51:53 13° S visible
